Weather History for Shelbyville, IN

Change the Weather History Date:

Tuesday, November 6, 2012

  Actual Average Record
Temperature  
Mean Temperature 38 °F 48 °F  
Max Temperature 51 °F 58 °F 73 °F (2008)
Min Temperature 25 °F 38 °F 23 °F (2010)
Degree Days  
Heating Degree Days 27 17  
Month to date heating degree days 156 99  
Since 1 July heating degree days 605 534  
Cooling Degree Days 0 0  
Month to date cooling degree days 0 0  
Year to date cooling degree days 1417 913  
Moisture  
Dew Point 30 °F    
Average Humidity 67    
Maximum Humidity 92    
Minimum Humidity 42    
Precipitation  
Precipitation T in 0.13 in 0.34 in (2000)
Month to date precipitation 0.06 0.80  
Year to date precipitation 25.14 37.36  
Sea Level Pressure  
Sea Level Pressure 29.99 in    
Wind  
Wind Speed 4 mph (ESE)    
Max Wind Speed 10 mph    
Max Gust Speed 13 mph    
Visibility 9 miles    
Events      
T = Trace of Precipitation, MM = Missing Value Source: NWS Daily Summary

Daily Weather History Graph

Daily Weather History Graph

Search for Another Location

Airport:

Trip Planner

Search our weather history database for the weather conditions in past years. The results will help you decide how hot, cold, wet, or windy it might be!

Date:

Astronomy

Nov. 06, 2012 Rise Set
Actual Time 7:17 AM EST 5:35 PM EST
Civil Twilight 6:49 AM EST 6:03 PM EST
Nautical Twilight 6:17 AM EST 6:35 PM EST
Astronomical Twilight 5:45 AM EST 7:07 PM EST
Moon No Moon Rise 1:09 PM EST (11/6)
Length of Visible Light 11h 14m
Length of Day
10h 17m
Waning Gibbous, 53% of the Moon is Illuminated
Nov 6
Waning Gibbous
Nov 6
Last Quarter
Nov 13
New
Nov 20
First Quarter
Nov 28
Full

Hourly Weather History & Observations

Time (EST) Temp. Windchill Dew Point Humidity Pressure Visibility Wind Dir Wind Speed Gust Speed Precip Events Conditions
12:53 AM 30.0 °F 25.2 °F 25.0 °F 82% 30.09 in 9.0 mi ENE 4.6 mph - N/A   Clear
1:53 AM 30.0 °F 23.2 °F 25.0 °F 82% 30.07 in 9.0 mi ENE 6.9 mph - N/A   Clear
2:53 AM 28.9 °F 21.9 °F 25.0 °F 85% 30.07 in 8.0 mi East 6.9 mph - N/A   Clear
3:53 AM 28.9 °F 21.9 °F 25.0 °F 85% 30.06 in 8.0 mi East 6.9 mph - N/A   Clear
4:53 AM 28.9 °F 21.9 °F 25.0 °F 85% 30.06 in 7.0 mi ESE 6.9 mph - N/A   Clear
5:53 AM 27.0 °F 21.6 °F 24.1 °F 89% 30.05 in 7.0 mi East 4.6 mph - N/A   Clear
6:53 AM 27.0 °F 23.0 °F 24.1 °F 89% 30.05 in 7.0 mi NE 3.5 mph - N/A   Clear
7:53 AM 28.9 °F 25.2 °F 26.1 °F 89% 30.06 in 5.0 mi ENE 3.5 mph - N/A   Clear
8:53 AM 35.1 °F - 28.9 °F 78% 30.07 in 7.0 mi Calm Calm - N/A   Clear
9:53 AM 37.9 °F 34.4 °F 30.9 °F 76% 30.06 in 10.0 mi ESE 4.6 mph - N/A   Clear
10:53 AM 43.0 °F - 32.0 °F 65% 30.05 in 10.0 mi Calm Calm - N/A   Clear
11:53 AM 46.0 °F 44.8 °F 30.9 °F 56% 30.01 in 10.0 mi SE 3.5 mph - N/A   Clear
12:53 PM 48.0 °F - 30.9 °F 52% 29.98 in 10.0 mi South 4.6 mph - N/A   Clear
1:53 PM 50.0 °F - 30.9 °F 48% 29.96 in 10.0 mi Calm Calm - N/A   Clear
2:53 PM 50.0 °F - 28.0 °F 43% 29.94 in 10.0 mi South 3.5 mph - N/A   Mostly Cloudy
3:53 PM 50.0 °F - 28.9 °F 44% 29.93 in 10.0 mi Calm Calm - N/A   Overcast
4:53 PM 48.0 °F - 32.0 °F 54% 29.92 in 10.0 mi SE 3.5 mph - N/A   Mostly Cloudy
5:53 PM 46.0 °F 44.8 °F 32.0 °F 58% 29.92 in 10.0 mi ESE 3.5 mph - N/A   Overcast
6:53 PM 46.0 °F - 33.1 °F 61% 29.92 in 10.0 mi Calm Calm - N/A   Overcast
7:53 PM 45.0 °F - 33.1 °F 63% 29.93 in 10.0 mi Calm Calm - N/A   Overcast
8:53 PM 46.0 °F - 32.0 °F 58% 29.92 in 10.0 mi Calm Calm - N/A   Overcast
9:53 PM 45.0 °F 41.2 °F 34.0 °F 65% 29.92 in 10.0 mi WSW 6.9 mph - 0.00 in   Overcast
10:53 PM 44.1 °F 39.0 °F 36.0 °F 73% 29.91 in 10.0 mi West 9.2 mph - N/A   Overcast
11:53 PM 43.0 °F 38.2 °F 37.0 °F 80% 29.91 in 8.0 mi WNW 8.1 mph - 0.00 in   Overcast